Vertical_Velocity
-0 -0 -1 -0 -0 0 0 1 0 -0 0 -0 -1 -0 -2 -0 -4 -3 -22 7 -0 -1 -0 -3 -5 -12 -1 -2 3 4 8 -0 -3 1 -4 -3 2 -10 7 -1 -1 11 4 10 -3
-1 -0 -1 -1 -1 -1 -0 -1 -1 -2 -1 -0 0 -1 0 1 0 -10 4 -1 -0 -3 -7 -5 -9 -8 -7 -3 -2 2 5 -2 -0 2 2 0 6 4 -7 -7 -8 -18 -2 3 7
-1 -1 -1 -1 -1 -2 -2 -2 -2 -2 -2 0 1 -1 1 2 -1 1 4 -0 0 -0 -2 0 -2 -1 -0 1 2 -3 3 1 -5 6 2 2 -6 3 3 -7 3 3 -13 -12 -0
-1 -1 -1 -1 -2 -3 -2 -2 -2 -1 -1 -2 0 1 1 -2 -4 -3 -1 -3 -6 -5 -4 -2 -3 -6 1 -1 3 -1 -1 3 -4 -3 -3 -0 1 -7 8 -6 0 -3 -4 -4 -8
-2 -2 -3 -3 -0 -1 -1 -1 -1 0 -2 -1 1 -2 -0 -6 -1 6 -0 -0 1 -4 -3 4 0 -0 0 2 -5 2 -0 -2 -2 1 -1 3 -1 4 -8 4 -4 1 2 2 -5
-1 -1 -2 -1 -1 -0 -1 1 0 -1 -0 1 -1 6 -7 -11 4 -5 2 -0 -1 0 -2 1 1 3 4 0 1 -1 0 -5 -4 -5 2 5 -6 7 -12 -7 -4 -3 -4 -1 -2
-1 -1 -1 -2 -1 -1 1 -0 -0 -1 2 -0 0 -6 -5 5 2 -0 -1 1 -2 1 -3 -2 -3 -3 -1 -2 1 0 3 -2 -2 -1 -3 8 -8 -3 -6 -6 -4 -8 -1 -1 -0
-2 -1 -1 -1 -2 -1 1 -2 -3 0 1 1 -1 3 -3 1 5 -4 -12 -13 -3 3 8 -1 -1 2 4 2 -3 2 -2 -3 -9 -1 -11 12 -17 -11 -6 3 -8 -8 -13 -2 -6
-2 -2 -1 -1 -2 -2 -1 -2 -4 2 -0 -3 -4 -0 -2 2 -20 -5 1 -1 -6 -2 -2 6 2 1 -4 -2 -5 -2 -1 0 -12 0 1 12 -12 -14 1 2 -3 -6 -8 -4 -10
-2 -1 -2 -2 -2 -1 -2 -1 -2 -1 2 -1 7 -2 -8 -5 -3 6 -1 4 -6 -2 -17 -15 1 -2 -3 -5 -3 -2 -1 -4 1 -19 -2 -4 -9 -8 -6 5 -2 -4 -10 -10 -5
-2 -2 -2 -2 -0 -0 -3 -2 -1 -3 -15 -4 -1 -5 -3 -10 1 -8 -10 -12 -13 -7 -2 -2 -3 -0 1 -0 -1 2 3 2 -10 -9 15 -1 -2 -8 -7 1 -1 -2 -5 -7 -11
-2 -1 -2 -2 -1 -3 -2 -5 -2 -1 -1 -1 -3 -0 -0 7 -1 -11 -6 -13 -2 0 -4 -8 -1 2 1 0 2 -0 2 -9 -13 -3 20 -3 -12 -6 -1 -5 3 1 -0 -7 -7
-2 -1 -1 0 1 -4 0 -2 0 -2 -4 -0 4 -1 -11 9 4 -1 -11 1 1 -1 -0 -1 -8 -0 2 -2 0 -3 6 -2 12 -10 -7 8 -7 -2 -1 -2 -5 -5 10 4 11
-2 -1 -3 -2 1 0 -2 2 -0 -1 -6 -6 -3 -4 -4 9 -1 10 -8 5 -7 2 1 1 -4 4 -1 1 4 1 0 5 2 5 -1 -6 -6 -1 -2 -2 -2 -3 -2 -2 -6
-2 -2 -3 -1 -0 -4 -1 1 0 -5 -9 -13 -0 1 5 -13 3 -14 10 -11 1 0 -9 -15 -2 -1 0 2 3 -6 4 10 5 3 -4 -2 4 -5 -1 -6 -5 -4 -4 -1 -3
-1 -2 -1 -1 -3 -1 -1 -2 1 -16 -11 -4 3 -2 -10 -4 -2 -8 -4 -11 8 1 -3 -1 -1 1 2 -1 4 2 -4 -3 -1 -1 -6 -3 -0 0 1 8 -6 -7 -5 -2 -8
-2 -3 -4 -1 -1 -0 1 -1 -11 -13 -9 -6 -1 -1 1 -2 -4 -2 -1 -6 -5 -9 -6 -7 -4 -3 -1 -2 -1 -4 -7 -6 -14 -10 -5 -1 -2 -3 1 0 7 3 -7 -4 -2
-2 -3 -1 -2 1 2 1 -8 -15 -1 1 -2 -0 -3 -0 -0 -2 -3 -3 -2 -3 -2 0 1 -23 -2 -7 -0 -1 1 -0 2 2 1 -6 -5 0 -7 6 1 2 4 9 2 -5
-2 -2 -4 -0 -0 -1 -1 -10 -3 1 1 1 -7 -2 -3 -3 3 -3 -0 -1 -1 -2 -4 0 -6 -9 5 1 -7 -5 -4 -2 3 -0 6 -4 -7 -2 -7 -11 -9 -8 -6 -6 -5
-2 -2 0 -1 -1 -2 -13 -2 -0 -0 1 -1 1 -4 0 -1 -4 -4 -2 -6 -2 1 1 -7 -3 -2 -5 -1 -2 -3 -1 -11 -5 0 -3 -5 -1 -1 -10 -9 -6 -9 -4 -9 -3
-0 -1 1 -2 -3 -10 -5 0 -0 2 -1 -1 1 -1 -1 1 2 -0 -5 -7 -1 -3 3 -2 -4 -19 -2 -3 -1 -4 -3 -2 3 3 3 0 -6 6 6 3 2 -3 -2 2 -0
-1 -4 -1 -1 -15 1 -1 -0 -0 -1 3 2 2 -1 -1 -0 0 0 0 -3 3 8 -1 -5 -2 -0 -2 -1 -4 -2 -0 1 4 -4 -1 3 -14 3 4 2 6 -3 -0 1 7
-3 -1 -3 -2 -5 -1 1 0 -1 -0 -0 -1 -0 -0 -0 1 -6 2 -0 -1 -0 1 -3 -5 -6 -3 -19 -12 -2 -1 -0 1 1 2 -0 5 -16 -4 -3 -5 -6 3 -2 -6 2
-1 -6 -4 -8 2 -4 -1 -0 -1 1 1 -1 -1 2 -1 -1 -0 -3 -2 -4 -4 3 6 -3 -0 -5 -1 -6 8 -0 -1 -1 3 2 -1 -2 -11 -19 -10 -1 -8 -9 -2 4 3
-2 0 0 -2 -2 -1 -2 -1 -0 -1 -1 1 -3 -0 -1 -0 -2 0 -1 -6 -6 4 -5 -5 -1 2 -4 -1 1 -1 1 -0 1 0 4 -7 5 -1 3 6 4 5 -3 -2 1
-2 -3 1 -1 -0 -1 0 -1 -0 -2 -2 -3 -0 -1 1 -0 -4 -2 5 -1 0 -7 0 -1 -6 1 -5 -1 -0 1 -0 -0 0 -1 -1 0 -7 9 -4 -4 -7 2 1 1 0
-3 -1 -1 0 0 -4 -2 -1 -1 1 -3 2 3 2 0 -3 5 -2 6 1 -4 2 -0 0 1 -1 -5 1 -2 -3 0 2 -1 -0 4 2 7 -1 -12 -3 1 -3 5 3 4
Height
1536 1534 1531 1529 1527 1524 1521 1518 1516 1514 1511 1510 1509 1509 1509 1510 1511 1508 1505 1514 1511 1507 1502 1498 1496 1493 1492 1492 1493 1493 1490 1480 1480 1478 1474 1472 1473 1468 1466 1468 1466 1461 1459 1458 1452
1537 1534 1532 1529 1527 1524 1521 1518 1516 1514 1512 1510 1509 1509 1510 1511 1510 1509 1516 1513 1510 1505 1500 1497 1493 1492 1492 1491 1490 1488 1484 1482 1478 1479 1482 1481 1480 1475 1468 1460 1461 1456 1450 1449 1450
1539 1535 1532 1530 1527 1524 1521 1518 1516 1514 1512 1512 1511 1511 1513 1513 1513 1516 1515 1512 1509 1504 1502 1500 1496 1493 1492 1491 1489 1488 1481 1485 1482 1482 1481 1479 1476 1477 1474 1465 1470 1465 1455 1451 1448
1539 1536 1533 1530 1528 1524 1521 1518 1516 1515 1513 1513 1513 1513 1514 1513 1522 1519 1516 1513 1508 1503 1500 1498 1496 1495 1494 1493 1492 1493 1486 1487 1485 1485 1483 1481 1479 1475 1473 1472 1469 1466 1461 1456 1449
1539 1536 1534 1530 1528 1524 1521 1519 1518 1516 1515 1515 1515 1515 1515 1515 1521 1520 1517 1511 1507 1502 1500 1498 1497 1497 1498 1496 1494 1490 1487 1485 1481 1482 1480 1477 1475 1472 1465 1467 1465 1460 1457 1454 1450
1539 1537 1534 1530 1528 1524 1521 1520 1519 1519 1517 1517 1517 1517 1515 1518 1522 1519 1515 1510 1505 1501 1499 1499 1499 1499 1497 1497 1497 1491 1488 1482 1480 1477 1475 1475 1472 1471 1466 1462 1458 1454 1453 1450 1447
1540 1537 1534 1531 1528 1525 1522 1521 1521 1520 1519 1518 1517 1517 1517 1525 1521 1518 1513 1508 1504 1503 1500 1499 1499 1499 1498 1495 1492 1489 1487 1481 1482 1480 1473 1473 1467 1467 1463 1461 1456 1453 1447 1444 1444
1540 1537 1534 1531 1528 1524 1522 1522 1521 1521 1520 1519 1519 1518 1520 1522 1521 1517 1513 1507 1504 1502 1500 1499 1498 1497 1496 1495 1491 1489 1486 1492 1480 1479 1473 1476 1464 1458 1459 1457 1455 1450 1441 1437 1435
1540 1537 1534 1531 1528 1524 1523 1523 1522 1520 1520 1519 1520 1519 1524 1523 1519 1517 1514 1507 1505 1501 1498 1497 1497 1496 1497 1498 1502 1494 1506 1489 1478 1475 1471 1475 1459 1450 1453 1452 1449 1447 1442 1430 1428
1541 1537 1534 1531 1528 1524 1523 1523 1521 1521 1521 1521 1522 1525 1526 1526 1522 1518 1513 1507 1505 1501 1496 1496 1495 1497 1501 1504 1523 1500 1494 1486 1483 1467 1466 1464 1454 1444 1445 1445 1444 1441 1438 1431 1421
1541 1538 1534 1531 1527 1525 1523 1522 1525 1524 1523 1528 1530 1529 1529 1526 1521 1517 1513 1508 1505 1503 1504 1499 1502 1506 1501 1499 1497 1497 1495 1489 1472 1466 1463 1459 1448 1438 1436 1435 1434 1432 1431 1428 1419
1541 1538 1535 1531 1527 1525 1524 1520 1523 1527 1529 1530 1529 1529 1527 1523 1521 1519 1516 1511 1509 1510 1506 1506 1506 1499 1496 1494 1493 1492 1492 1480 1462 1461 1460 1447 1437 1430 1429 1425 1425 1424 1423 1422 1419
1541 1538 1535 1530 1529 1525 1523 1523 1523 1525 1528 1530 1529 1528 1526 1524 1522 1520 1517 1512 1509 1509 1510 1513 1502 1497 1496 1493 1491 1490 1488 1475 1470 1443 1450 1437 1437 1428 1425 1424 1423 1422 1420 1421 1417
1541 1539 1535 1530 1530 1527 1524 1523 1524 1525 1531 1535 1530 1531 1527 1523 1523 1522 1519 1518 1513 1512 1508 1507 1498 1497 1496 1493 1491 1487 1476 1469 1458 1458 1456 1436 1454 1434 1430 1426 1425 1423 1422 1419 1413
1541 1539 1534 1530 1530 1526 1527 1524 1523 1526 1536 1533 1532 1532 1530 1529 1528 1525 1521 1516 1518 1514 1515 1512 1502 1497 1496 1492 1489 1483 1477 1459 1449 1446 1462 1442 1445 1447 1434 1431 1427 1423 1419 1414 1410
1542 1539 1536 1532 1529 1527 1524 1524 1525 1532 1549 1535 1536 1535 1535 1530 1529 1527 1524 1521 1518 1517 1512 1509 1498 1495 1494 1491 1486 1482 1475 1452 1445 1453 1486 1439 1446 1444 1444 1442 1432 1424 1419 1411 1402
1542 1539 1535 1532 1530 1526 1524 1524 1530 1542 1540 1543 1545 1541 1538 1536 1531 1529 1528 1531 1534 1535 1521 1512 1502 1496 1493 1492 1486 1486 1481 1472 1493 1479 1476 1438 1444 1454 1447 1441 1435 1429 1415 1404 1396
1541 1540 1537 1533 1531 1527 1525 1526 1546 1554 1557 1552 1549 1542 1539 1540 1538 1534 1534 1541 1535 1540 1537 1538 1518 1502 1496 1500 1504 1494 1496 1501 1498 1474 1459 1435 1434 1439 1438 1437 1432 1423 1411 1400 1391
1541 1540 1537 1535 1532 1528 1526 1552 1565 1565 1563 1559 1551 1548 1547 1546 1547 1543 1542 1546 1541 1538 1544 1544 1520 1502 1499 1495 1498 1497 1502 1491 1490 1481 1472 1439 1437 1438 1430 1422 1420 1414 1404 1392 1381
1541 1539 1538 1536 1533 1531 1533 1558 1564 1563 1561 1559 1562 1557 1564 1555 1553 1553 1546 1543 1540 1534 1534 1537 1526 1501 1496 1495 1496 1499 1498 1499 1503 1488 1472 1438 1457 1443 1434 1427 1420 1409 1398 1384 1371
1541 1540 1540 1537 1536 1534 1556 1565 1563 1562 1561 1562 1560 1564 1569 1564 1553 1554 1553 1541 1536 1533 1530 1534 1541 1509 1503 1505 1509 1503 1505 1503 1498 1483 1478 1464 1448 1446 1445 1435 1426 1411 1397 1382 1366
1542 1542 1542 1539 1540 1548 1561 1561 1562 1561 1560 1559 1558 1561 1565 1558 1560 1551 1545 1541 1537 1533 1536 1529 1532 1526 1506 1501 1503 1504 1510 1504 1493 1489 1483 1476 1459 1440 1445 1438 1425 1409 1394 1378 1362
1543 1544 1544 1541 1553 1559 1558 1560 1561 1560 1560 1560 1560 1559 1557 1559 1565 1549 1542 1537 1535 1533 1533 1528 1537 1529 1524 1511 1501 1504 1507 1506 1497 1488 1483 1489 1459 1444 1443 1434 1420 1406 1393 1376 1363
1545 1547 1547 1546 1553 1557 1563 1564 1562 1561 1560 1560 1559 1558 1558 1556 1553 1549 1544 1538 1535 1530 1528 1526 1535 1538 1535 1518 1505 1504 1508 1503 1500 1493 1491 1482 1466 1447 1438 1425 1412 1399 1386 1373 1365
1547 1551 1552 1559 1558 1558 1560 1564 1563 1562 1561 1559 1559 1558 1562 1565 1553 1547 1543 1540 1534 1531 1529 1529 1537 1524 1513 1505 1502 1508 1509 1503 1500 1495 1495 1480 1472 1459 1449 1434 1421 1409 1393 1379 1359
1548 1550 1554 1557 1558 1559 1561 1563 1563 1563 1562 1561 1560 1558 1557 1562 1556 1554 1547 1545 1542 1533 1532 1529 1532 1519 1513 1495 1503 1498 1504 1504 1499 1495 1495 1485 1470 1464 1450 1438 1420 1409 1391 1374 1367
1548 1549 1550 1558 1558 1560 1562 1561 1562 1562 1561 1560 1559 1557 1554 1551 1548 1542 1541 1541 1539 1539 1534 1534 1531 1525 1516 1497 1491 1497 1514 1507 1502 1498 1497 1487 1476 1462 1445 1431 1420 1410 1402 1391 1382